Location: ????????
(55.9082°N, 38.2690°E)
Time: 11:58:37
(UTC+00:00)

Daily predictions for brighter satellites

Satellite Brightness Start Highest point End
(mag) Time Altitude Azimuth Time Altitude Azimuth Time Altitude Azimuth
Cosmos 2297 3.8 13:31:28 10° SSW 13:37:07 77° ESE 13:42:47 10° NE
Cosmos 1892 Rocket 3.6 13:35:12 10° N 13:39:40 73° ENE 13:44:07 10° SSE
Cosmos 1464 Rocket 4.0 13:34:06 10° S 13:40:15 80° E 13:46:25 10° NNE
SMAP 3.7 13:36:19 10° SE 13:40:31 34° ENE 13:44:44 10° N
Thor Agena Rocket 3.8 13:36:28 10° SE 13:41:25 46° ENE 13:46:21 10° N
Cosmos 2297 Rocket 2.5 13:38:19 10° NNW 13:43:47 46° NE 13:49:14 10° ESE
Landsat 7 4.5 13:42:40 10° ESE 13:46:45 31° ENE 13:50:51 10° N
Cosmos 2151 4.1 13:43:57 10° NNE 13:47:08 21° ENE 13:50:19 10° ESE
Cosmos 1741 Rocket 4.1 13:43:46 10° SSW 13:49:05 84° ESE 13:54:27 10° NNE
Aureole 3 Rocket 4.2 13:45:40 10° SSW 13:50:06 57° WNW 13:56:19 10° N
Cosmos 1092 Rocket 4.0 13:44:48 10° N 13:51:01 72° ENE 13:57:08 10° SSE
CZ-2D R/B 4.0 13:49:38 10° ESE 13:52:02 20° ENE 13:54:28 10° NNE
BlueWalker 3 3.1 13:51:04 10° W 13:54:30 41° SSW 13:57:56 10° SE
Cosmos 2219 4.4 13:51:59 10° NNW 13:56:32 23° NNE 14:01:05 10° ENE
Meteor 2-1 Rocket 4.3 13:50:43 10° S 13:56:39 79° ESE 14:02:31 10° NNE
Cosmos 1743 3.5 13:55:55 10° NNE 13:58:35 22° ENE 14:01:12 10° ESE
Lacrosse 4 Rocket 1.9 13:55:48 10° SSW 13:59:39 41° ESE 14:03:13 11° NE
ATLAS CENTAUR R/B 0.7 13:57:06 10° NW 14:00:25 65° NE 14:03:36 10° ESE
CZ-4C R/B 2.8 13:55:41 10° NW 14:01:51 67° NNE 14:09:48 10° ESE
Cosmos 1484 Rocket 2.4 14:00:22 10° SSE 14:03:54 84° ENE 14:07:25 10° NNW
Iridium 45 4.1 14:02:40 10° S 14:05:49 70° E 14:09:02 10° N
H-2A R/B 4.5 14:03:29 10° N 14:06:22 21° WNW 14:09:11 10° WSW
Cosmos 724 4.3 14:00:57 10° NW 14:07:05 70° NE 14:13:03 10° ESE
JB-3 4.1 14:03:58 10° NNE 14:07:42 77° ESE 14:11:20 10° S
Cosmos 2034 Rocket 4.1 14:01:41 10° S 14:08:00 85° E 14:14:25 10° NNE
Meteor 1-28 Rocket 3.5 14:06:18 10° NNE 14:09:27 36° E 14:12:35 10° SSE
NOSS 3-3 (A) 4.5 14:05:05 10° NW 14:12:01 86° NE 14:20:26 10° SE
Iridium 51 4.0 14:09:42 10° SSE 14:12:42 44° E 14:15:47 10° NNE
Cosmos 1602 Rocket 4.1 14:10:34 10° N 14:14:40 36° ENE 14:18:44 10° SE
Cosmos 1570 Rocket 4.0 14:09:27 10° NNW 14:14:51 86° ENE 14:20:11 10° SSE
MOS 1 Rocket 3.9 14:10:34 10° SE 14:15:07 40° ENE 14:19:56 10° N
Cosmos 1867 3.7 14:09:43 10° NW 14:15:07 56° NNE 14:20:30 10° ESE
IGS 5A 3.3 14:12:54 10° SSE 14:16:52 88° ENE 14:20:52 10° NNW
Cosmos 1455 Rocket 3.0 14:13:10 10° S 14:17:29 87° ESE 14:21:54 10° NNE
Cosmos 1844 Rocket 4.2 14:14:42 10° NNW 14:18:39 19° NNE 14:21:38 13° NE
Lacrosse 5 rocket 2.1 14:15:19 10° SSW 14:18:44 34° SE 14:21:16 15° E
Cosmos 2084 3.6 14:15:11 10° SSW 14:19:18 55° SE 14:22:25 16° ENE
CENTAUR R/B 2.7 14:14:32 10° SSW 14:20:17 64° SE 14:26:39 14° NE
IRS-P3 4.4 14:15:50 10° SE 14:20:54 47° ENE 14:25:59 10° N
Cosmos 2084 Rocket 3.4 14:16:56 10° NW 14:21:08 64° NNE 14:25:20 10° ESE
SAR-Lupe-4 3.7 14:18:26 10° SE 14:21:52 47° ENE 14:25:19 10° N
Cosmos 1850 Rocket 4.5 14:17:13 10° SW 14:22:18 58° NW 14:27:26 10° NNE
Cosmos 1900 4.5 14:17:22 10° NW 14:22:25 57° NE 14:27:21 10° ESE
Cosmos 2266 Rocket 4.2 14:19:20 10° N 14:25:21 47° ENE 14:31:13 10° SE
Cosmos 2263 Rocket 2.9 14:20:29 10° NNW 14:25:36 33° NE 14:30:18 12° E
Cosmos 292 Rocket 3.8 14:21:45 10° SSW 14:26:35 86° WNW 14:31:24 10° NNE
Cosmos 1315 Rocket 2.6 14:23:09 10° S 14:26:58 70° E 14:30:48 10° NNE
SL-16 R/B 2.5 14:20:55 10° NNE 14:27:12 74° ESE 14:33:24 10° SSW
Resurs 01 Rocket 3.4 14:28:00 14° NE 14:28:00 14° NE 14:29:35 10° NNE
Cosmos 1607 3.9 14:22:02 10° NW 14:28:17 84° NE 14:34:35 10° SE
SJ 16-02 3.6 14:26:04 10° W 14:28:58 17° NW 14:31:53 10° N
SAR-Lupe-1 4.2 14:25:33 10° SE 14:29:02 49° ENE 14:32:34 10° N
NOSS 7 (H) 4.2 14:26:11 10° NW 14:29:06 50° NNE 14:31:04 18° ESE
CZ-2D R/B 4.3 14:25:54 10° ESE 14:29:29 28° ENE 14:33:01 10° N
ERS-1 4.5 14:24:52 10° SE 14:29:46 58° ENE 14:34:40 10° N
YAOGAN 1 3.5 14:29:26 10° ESE 14:32:58 26° ENE 14:36:30 10° N
Intercosmos 24 3.8 14:29:01 10° NNW 14:33:30 90° SE 14:37:06 10° S
Cosmos 2227 Rocket 2.4 14:29:15 10° NNW 14:34:45 48° NE 14:40:13 10° ESE
Cosmos 1782 3.0 14:32:11 10° SSE 14:35:34 39° E 14:37:56 17° NNE
USA 215 3.3 14:29:44 13° E 14:35:40 82° N 14:42:15 10° W
CORIOLIS 4.2 14:32:22 10° SSE 14:37:43 86° WSW 14:43:06 10° NNW
Cosmos 405 Rocket 2.7 14:37:28 10° NNW 14:40:44 65° W 14:43:56 10° S
USA 281 4.4 14:38:01 17° ENE 14:40:59 23° NNE 14:45:55 10° NNW
Cosmos 1356 Rocket 3.3 14:37:06 10° SSW 14:41:10 90° NNE 14:45:17 10° NNE
Cosmos 773 Rocket 4.1 14:36:00 10° NNW 14:41:14 83° WSW 14:46:28 10° SSE
Cosmos 2369 Rocket 3.0 14:37:03 10° WSW 14:42:32 48° NW 14:47:43 12° NNE
Cosmos 1733 1.5 14:43:12 11° NNW 14:45:01 72° W 14:46:55 10° S
SJ-12 3.6 14:43:23 10° SSE 14:47:09 78° ENE 14:50:58 10° NNW
Cosmos 2208 Rocket 4.2 14:43:28 10° NNW 14:48:38 74° WSW 14:53:47 10° SSE
SJ-6F 4.3 14:45:09 10° SSE 14:49:04 62° ENE 14:53:03 10° N
Cosmos 1825 Rocket 3.9 14:44:57 10° N 14:49:06 39° ENE 14:53:11 10° SE
ARIANE 5 R/B 2.5 14:44:44 10° SSE 14:49:48 89° WSW 14:54:59 10° NNW
Cosmos 1758 Rocket 3.6 14:46:00 10° NNW 14:50:21 81° W 14:54:39 10° S
Cosmos 1933 4.5 14:47:21 10° SE 14:49:45 22° ESE 14:49:45 22° ESE
Cosmos 2278 Rocket 4.0 14:46:48 10° WNW 14:50:57 20° NNW 14:54:37 12° NNE
Cosmos 1943 Rocket 4.0 14:47:21 10° WNW 14:51:16 19° NNW 14:54:44 12° NNE
GEOS 3 Rocket 3.7 14:48:18 20° NE 14:52:02 66° SE 14:57:23 10° SW
SPOT 1/Viking Rocket 3.6 14:47:24 10° SE 14:52:28 54° ENE 14:57:32 10° N
Cosmos 2228 3.0 14:48:20 10° SSW 14:52:35 81° WNW 14:56:52 10° N
Cosmos 2098 Rocket 3.0 14:53:12 10° S 14:57:11 60° E 15:01:56 10° NNE
Cosmos 1697 Rocket 3.8 14:53:46 10° SSE 14:57:59 22° ESE 14:58:26 22° E
Meteor 1-20 Rocket 4.0 14:53:20 10° NNW 14:58:51 77° ENE 15:04:19 10° SSE
BREEZE-M DEB (TANK) 3.8 14:57:11 10° WSW 15:00:02 38° S 15:05:50 14° ESE
AQUARIUS 4.2 15:02:34 10° SSE 15:06:59 82° WSW 15:11:26 10° NNW
NOSS 2-2 (C) 2.5 15:06:51 10° SW 15:09:55 68° SE 15:10:15 61° E
USA 290 3.0 15:10:19 10° NW 15:13:31 53° WSW 15:16:41 10° S
NOSS 3-2 (C) 4.0 15:09:24 10° S 15:13:57 32° ESE 15:15:10 29° E
NOSS 3-2 (A) 3.3 15:10:14 10° SSW 15:15:21 63° SE 15:18:17 30° ENE
Cosmos 1655 Rocket 4.0 15:09:37 10° N 15:15:49 58° ENE 15:21:56 10° SSE
SMAP 4.3 15:13:21 10° S 15:17:48 44° W 15:22:17 10° NNW
Cosmos 2082 4.2 15:13:54 10° NNW 15:19:17 40° NE 15:20:46 34° ENE
Cosmos 1241 Rocket 4.5 15:13:36 10° SSW 15:19:52 64° SE 15:22:58 31° ENE
Cosmos 1538 Rocket 4.1 15:17:37 10° NNW 15:22:46 52° NE 15:25:01 31° ESE
CZ-2D R/B 4.3 15:20:50 10° S 15:23:47 37° W 15:26:47 10° NNW
Cosmos 2151 3.4 15:20:14 10° NNW 15:24:20 61° W 15:28:26 10° S
Cosmos 1606 Rocket 3.7 15:23:07 10° S 15:27:22 50° E 15:27:45 49° ENE
Cosmos 2297 Rocket 3.1 15:22:28 10° NW 15:27:57 50° WSW 15:33:23 10° S
UNK 4.1 15:23:59 11° N 15:28:21 64° WNW 15:32:53 10° SSW
Meteor 1-25 Rocket 4.3 15:22:48 10° NNW 15:28:41 85° WSW 15:34:29 10° S
BREEZE-M DEB (TANK) 4.4 15:25:54 10° WSW 15:29:13 44° S 15:33:46 22° ESE
Cosmos 1076 Rocket 3.4 15:25:57 10° N 15:30:13 60° ENE 15:32:39 24° SSE
Okean 1-7 Rocket 3.7 15:26:45 10° NNW 15:31:10 73° W 15:35:31 10° S
Cosmos 1743 4.0 15:29:15 10° NNW 15:32:14 33° W 15:35:12 10° SSW
Cosmos 1656 3.6 15:28:41 10° SSW 15:34:19 83° ESE 15:37:03 33° NE
Resurs 1-3 3.4 15:30:16 10° SSE 15:34:34 76° ENE 15:38:53 10° NNW
ATLAS CENTAUR R/B 3.5 15:32:28 10° WNW 15:34:56 20° WSW 15:37:19 10° S
Cosmos 1544 Rocket 4.2 15:32:03 10° SSW 15:36:22 55° WNW 15:40:20 12° N
Cosmos 1503 Rocket 4.0 15:31:38 10° S 15:36:46 58° ESE 15:37:54 47° ENE
Meteor 2-10 4.1 15:31:54 10° N 15:37:04 55° ENE 15:39:46 28° SE
Lacrosse 4 Rocket 2.3 15:33:42 10° WSW 15:37:32 39° NW 15:38:43 31° N
OceanSat 1 rocket 4.4 15:34:25 10° SSE 15:39:08 73° ENE 15:43:51 10° NNW
Cosmos 2279 Rocket 4.5 15:33:04 10° SSW 15:39:11 60° WNW 15:45:23 10° N
Cosmos 2219 3.2 15:36:12 10° NNW 15:41:52 58° NE 15:43:14 46° E
Cosmos 1461 4.3 15:39:20 10° S 15:41:17 23° SSE 15:41:17 23° SSE
SJ-7 4.1 15:42:23 50° SSE 15:43:19 87° WSW 15:47:06 10° NNW
Cosmos 1354 Rocket 4.2 15:38:33 10° S 15:43:36 49° ESE 15:43:36 49° ESE
Meteor 1-5 Rocket 4.0 15:38:35 10° NNW 15:43:56 88° ENE 15:49:20 10° SSE
SKYMED 2 3.4 15:45:54 70° E 15:46:01 70° ESE 15:50:20 10° S
Spot 4 Rocket 4.0 15:42:00 10° SSE 15:47:07 80° WSW 15:52:16 10° NNW
CZ-4C R/B 3.5 15:43:48 10° NW 15:50:20 56° SW 15:58:29 10° SSE
COSMO-SKYMED 1 4.0 15:52:52 23° S 15:52:52 23° S 15:54:33 10° S
SL-19 R/B 4.2 15:47:48 10° SSE 15:53:11 83° WSW 15:58:53 10° NNW
Cosmos 1726 Rocket 3.8 15:49:28 10° S 15:53:24 58° SE 15:53:24 58° SE
PSLV R/B 3.4 15:52:38 29° S 15:54:37 77° WSW 15:58:42 10° NNW
Lacrosse 5 rocket 1.5 15:51:47 10° WSW 15:54:52 58° WSW 15:54:52 58° WSW
Cosmos 44 Rocket 4.1 15:51:55 10° NW 15:56:25 38° NNE 15:56:25 38° NNE
Cosmos 2084 4.0 15:54:02 10° W 15:58:04 46° NNW 15:58:08 46° NNW
Cosmos 1867 4.4 15:53:28 10° NW 15:58:43 48° SW 16:03:16 13° SSE
Cosmos 1777 Rocket 3.9 15:53:40 10° SSW 15:58:56 90° SE 16:00:11 54° NNE
Cosmos 1980 Rocket 4.0 15:54:33 10° SSE 15:55:56 16° SSE 15:55:56 16° SSE
Resurs 01 Rocket 3.2 16:05:25 24° N 16:05:25 24° N 16:07:16 10° N
Cosmos 1844 Rocket 3.5 15:58:56 10° NNW 16:03:16 35° NNE 16:03:16 35° NNE
CZ-2D R/B 4.4 16:00:09 10° S 16:04:14 48° W 16:08:17 10° NNW
YAOGAN 1 3.2 16:04:25 10° S 16:08:35 53° W 16:12:47 10° NNW
Cosmos 2263 Rocket 2.2 16:04:23 10° NW 16:10:05 79° WSW 16:12:02 43° SSE
SL-16 R/B 4.1 16:04:55 10° N 16:10:21 32° NW 16:15:44 10° WSW
CENTAUR R/B 3.1 16:04:53 10° W 16:11:08 59° NNW 16:13:45 40° NE
Cosmos 1486 Rocket 4.4 16:08:16 10° SW 16:13:26 62° WNW 16:14:56 43° N
Cosmos 1953 Rocket 4.0 16:10:12 10° NNW 16:14:36 62° W 16:16:13 36° SSW
Nadezhda 2 Rocket 4.3 16:09:38 10° N 16:15:50 76° ENE 16:17:09 56° SE
USA 81 4.1 16:12:15 10° N 16:17:33 79° W 16:22:49 10° S
Cosmos 2360 4.3 16:11:51 10° SW 16:17:34 73° NW 16:18:51 54° NNE
USA 215 3.2 16:17:05 53° SE 16:18:48 78° SSW 16:25:24 10° WNW
Cosmos 2227 Rocket 3.1 16:13:27 10° NW 16:18:51 46° WSW 16:24:12 10° S
USA 281 3.5 16:24:53 50° NNE 16:24:53 50° NNE 16:30:40 10° NNW
Cosmos 2369 Rocket 4.0 16:23:37 10° WNW 16:27:55 21° NNW 16:29:28 19° N
GEOS 3 Rocket 4.2 16:29:20 48° N 16:29:56 51° NNW 16:35:07 10° W
Cosmos 1943 Rocket 4.1 16:33:23 10° NNW 16:36:13 17° N 16:36:13 17° N
Cosmos 2278 Rocket 4.1 16:33:15 10° NNW 16:36:26 18° N 16:36:26 18° N
Cosmos 1697 Rocket 3.0 16:35:40 10° SW 16:40:11 60° SW 16:40:11 60° SW
Cosmos 2082 4.4 16:58:02 10° NW 17:02:38 52° WNW 17:02:38 52° WNW
NOSS 3-2 (C) 3.9 16:58:48 10° WSW 17:02:36 49° WSW 17:02:36 49° WSW
NOSS 3-2 (A) 4.0 17:00:52 10° W 17:05:38 51° NW 17:05:38 51° NW
Lacrosse 4 Rocket 4.4 17:13:40 10° WNW 17:14:13 12° NW 17:14:13 12° NW
Cosmos 2263 Rocket 4.4 17:49:22 10° WNW 17:53:10 19° W 17:53:46 18° WSW
CENTAUR R/B 3.9 17:56:15 10° WNW 18:00:51 39° NW 18:00:51 39° NW
